This is the latest recevied weather packets stored in our database for station/object VK3AGD-9. If no packets are shown the sender has not sent any weather packets the latest 10 day(s).
| Time | Temp. | Humidity | Pressure | Rain* | Wind** | Luminosity | Snow |
|---|---|---|---|---|---|---|---|
| 1787808677 | 15.56° C | 61% | - | 0 mm | - | - | - |
| 1787807814 | 15.56° C | 63% | - | 0 mm | - | - | - |
| 1787806852 | 15.56° C | 65% | - | 0 mm | - | - | - |
| 1787805989 | 15° C | 65% | - | 0 mm | - | - | - |
| 1787805029 | 14.44° C | 65% | - | 0 mm | - | - | - |
| 1787804164 | 15° C | 66% | - | 0 mm | - | - | - |
| 1787803300 | 15° C | 68% | - | 0 mm | - | - | - |
| 1787802340 | 14.44° C | 68% | - | 0 mm | - | - | - |
| 1787801477 | 14.44° C | 69% | - | 0 mm | - | - | - |
| 1787800612 | 14.44° C | 68% | - | 0 mm | - | - | - |
| 1787798788 | 14.44° C | 71% | - | 0 mm | - | - | - |
| 1787797829 | 13.89° C | 74% | - | 0 mm | - | - | - |
| 1787796964 | 12.78° C | 75% | - | 0 mm | - | - | - |
| 1787796100 | 12.78° C | 76% | - | 0 mm | - | - | - |
| 1787795140 | 12.78° C | 74% | - | 0 mm | - | - | - |
| 1787794276 | 12.78° C | 76% | - | 0 mm | - | - | - |
| 1787793413 | 12.22° C | 78% | - | 0 mm | - | - | - |
| 1787792452 | 12.22° C | 77% | - | 0 mm | - | - | - |
| 1787791588 | 11.11° C | 79% | - | 0 mm | - | - | - |
| 1787790628 | 11.11° C | 85% | - | 0 mm | - | - | - |
| 1787789764 | 11.11° C | 89% | - | 0 mm | - | - | - |
| 1787788899 | 11.67° C | 87% | - | 0 mm | - | - | - |
| 1787787942 | 11.67° C | 84% | - | 0 mm | - | - | - |
| 1787787077 | 11.11° C | 90% | - | 0 mm | - | - | - |
| 1787786212 | 9.44° C | 99% | - | 0 mm | - | - | - |
* Rain latest hour (hover to see other rain measurements)
** Current wind speed in m/s (hover to see current wind gust speed)